Regional Weather Roundup
Issued by NWS

Home | Current Version | Previous Version | Text Only | Print | Product List | Glossary On
Versions: 1 2 3 4 5 6 7 8 9 10 11 12 13 14 15 16 17 18 19 20 21 22 23 24 25 26 27 28 29 30 31 32 33 34 35 36 37 38 39 40 41 42 43 44 45 46 47 48 49 50
000
ASUS45 KREV 010910
RWRNV
NEVADA REGIONAL WEATHER ROUNDUP
NATIONAL WEATHER SERVICE RENO NV
100 AM PST SUN FEB 01 2015

NOTE: "FAIR" INDICATES FEW OR NO CLOUDS BELOW 12,000 FEET WITH NO
SIGNIFICANT WEATHER AND/OR OBSTRUCTIONS TO VISIBILITY.

NVZ001-003-004-011000-
WESTERN NEVADA

CITY           SKY/WX    TMP DP  RH WIND       PRES   REMARKS
RENO           PTCLDY    33  19  56 CALM      30.25F
CARSON CITY    FAIR      28  16  59 NW5       30.27S
SLIDE MTN        N/A     39   9  28 NE12        N/A
FALLON         CLEAR     23  20  88 CALM      30.25S
LOVELOCK       CLEAR     22  20  92 SE6       30.25S
HAWTHORNE      CLEAR     32  19  59 CALM      30.26
$$

NVZ002-CAZ072-073-011000-
NORTHERN AND CENTRAL SIERRA

CITY           SKY/WX    TMP DP  RH WIND       PRES   REMARKS
S. LAKE TAHOE  CLEAR     26  14  60 CALM      30.25S
TRUCKEE        CLEAR     21  16  79 CALM      30.26S
SQUAW VLY 8000   N/A     36  -8  15 CALM        N/A
BLUE CANYON    CLEAR     54 -14   6 NE7       30.18S
MAMMOTH LAKES  FAIR      23   3  42 NW3       30.26R
BRIDGEPORT     FAIR      19   7  59 CALM      30.25R
$$

NVZ030-031-036-011000-
NORTHERN NEVADA

CITY           SKY/WX    TMP DP  RH WIND       PRES   REMARKS
ELKO           CLEAR     26  21  81 CALM      30.22S
WINNEMUCCA     CLEAR     23  20  88 CALM      30.24F
WENDOVER       CLEAR     28  19  69 E5        30.19R
$$

NVZ035-037-011000-
CENTRAL NEVADA

CITY           SKY/WX    TMP DP  RH WIND       PRES   REMARKS
ELY            CLEAR     20  17  88 S10       30.20R
EUREKA           N/A     23  17  78 S5        30.23S
$$

NVZ013-014-011000-
SOUTH CENTRAL NEVADA

CITY           SKY/WX    TMP DP  RH WIND       PRES   REMARKS
TONOPAH        PTCLDY    34  18  52 N6        30.21R
$$

NVZ017-020-022-011000-
SOUTHERN NEVADA

CITY           SKY/WX    TMP DP  RH WIND       PRES   REMARKS
LAS VEGAS      CLEAR     49  40  71 S10       30.04R
N. LAS VEGAS   CLEAR     51  37  58 W5        30.07R
NELLIS AFB     CLEAR     49  39  69 NE6       30.08R
HENDERSON      CLEAR     45  38  76 CALM      30.09S
MERCURY        CLEAR     48  31  51 NE10      30.09S
$$



USA.gov is the U.S. government's official web portal to all federal, state and local government web resources and services.